Retour au catalogue

QIANFAN-236

ActifCommunicationsPO
NORAD 69865·PAYLOAD·🇨🇳 China

Lancé Jul 5, 2026 depuis Wenchang Space Launch Site

Loading…

Prochains Passages (prochaines 24 heures)

TLE

FraisSource: Space-Track

Époque: Sep 14, 2026, 21:28 UTC

1 69865U 26155T   26257.89484333  .00000024  00000-0  15724-4 0  9996
2 69865  89.0085  54.2789 0035081  26.1286 334.1630 13.57842859  9970

Suivez QIANFAN-236 en temps réel avec AllMySat

Download on the App Store